Location: Riverside
(39.1734°N, 77.8561°W)
Time: 20:47:38
(UTC+00:00)

Hubble Space Telescope - Pass Details

Date: 27 November 2019
Orbit: 536 x 540 km, 28.5° (Epoch: 14 December)

Event Time Altitude Azimuth Distance (km) Brightness Sun altitude
Rises 23:01:17 0° 250° (WSW) 2,668 6.3 -13.6°
Reaches altitude 10° 23:04:33 10° 223° (SW) 1,777 4.3 -14.2°
Maximum altitude 23:06:33 13° 193° (SSW) 1,576 3.5 -14.6°
Drops below altitude 10° 23:08:33 10° 164° (SSE) 1,776 3.4 -15.0°
Enters shadow 23:11:05 - 141° (SE) 2,428 3.9 -15.4°
